Duchifat 3
1 44854U 19089C   25105.85760058  .00063803  00000-0  14847-2 0  9990
2 44854  36.9462 341.8633 0000732 325.0685  35.0021 15.41232991294481
TO-108
1 44881U 19093C   25105.86607520  .00002085  00000-0  24753-3 0  9993
2 44881  97.7939 182.6596 0014960  55.3992 304.8632 14.85451531287955
FloripaSat 1
1 44885U 19093G   25105.84630514  .00010886  00000-0  93250-3 0  9990
2 44885  97.8146 193.3660 0010666  37.6771 322.5196 14.97690923288550
RS-44
1 44909U 19096E   25105.51570768  .00000011  00000-0 -73083-5 0  9992
2 44909  82.5176 263.8649 0218320  64.4972 297.8533 12.79740114247694
UPMSat 2
1 46276U 20061E   25105.76391556  .00068299  00000-0  80613-3 0  9994
2 46276  97.2490 178.5935 0001689 143.1829 216.9545 15.61119552256896
SALSAT
1 46495U 20068K   25105.86199677  .00014013  00000-0  62021-3 0  9993
2 46495  97.8579  81.4136 0011607   3.8312 356.3010 15.21727176250206
CubeSX-Sirius-HSE
1 47951U 21022V   25105.61738885  .00189919  00000-0  15382-2 0  9990
2 47951  97.4222  15.6491 0011009 120.7193 239.5155 15.70130248225150
CubeSX-HSE
1 47952U 21022W   25105.63981215  .00189107  00000-0  14966-2 0  9996
2 47952  97.4238  15.9054 0011043 117.9999 242.2382 15.70690645225173
GRBAlpha
1 47959U 21022AD  25105.67592349  .00182014  00000-0  14722-2 0  9993
2 47959  97.4221  16.0686 0010667 120.3140 239.9179 15.70190576224008
TUBIN
1 48900U 21059X   25105.87425989  .00066911  00000-0  99274-3 0  9990
2 48900  97.6725 270.8843 0003247  94.8540 265.3084 15.54996212211520
LEDSAT
1 49069U 21073D   25105.87289501  .00082155  00000-0  13013-2 0  9995
2 49069  97.3924 185.4248 0010964 268.5718  91.4279 15.53069311202924
CUTE
1 49263U 21088D   25105.07796379  .00026060  00000-0  56110-3 0  9994
2 49263  97.4536 179.8082 0009830  89.5562 270.6813 15.44550507195851
TeikyoSat 4
1 49396U 21102B   25105.59140281  .00004552  00000-0  30480-3 0  9994
2 49396  97.4161 145.9957 0011615 328.1905  31.8621 15.07338721188266
Z-Sat
1 49399U 21102E   25105.83362113  .00007246  00000-0  40333-3 0  9995
2 49399  97.3859 148.9974 0016492 295.8466  64.1064 15.13818470188692
KOSEN 1
1 49402U 21102H   25105.69679283  .00010088  00000-0  47901-3 0  9999
2 49402  97.3764 151.8781 0014404 269.7077  90.2507 15.19341193188950
HO-113
1 50466U 21131B   25105.82818775  .00001312  00000-0  42422-3 0  9992
2 50466  98.5082 195.4586 0003039 308.6006  51.4910 14.40724622173565
IRIS-A
1 51044U 22002BN  25105.75142780  .00188837  00000-0  12130-2 0  9991
2 51044  97.3292 183.2408 0001768 257.3066 102.8002 15.75681621181190
Foresail-1
1 52766U 22057AL  25105.32511811  .00176051  00000-0  12895-2 0  9994
2 52766  97.6045 251.4018 0002863 176.6325 183.4957 15.72646191161152
SNUGLITE 2
1 52899U 22065F   25105.30168097  .00002833  00000-0  56153-3 0  9994
2 52899  98.1596 247.8448 0006338 288.1566  71.8945 14.63022606148407
IO-117
1 53106U 22080B   25051.21822557 -.00000003  00000-0  00000+0 0  9995
2 53106  70.1434 106.3440 0008542  48.0089 312.1297  6.42557744 61200
UmKA 1 (RS40S)
1 57172U 23091G   25105.85301710  .00010373  00000-0  56441-3 0  9992
2 57172  97.5631 161.5326 0015599 158.6354 201.5532 15.14540254 99197
CubeBel-2 (EU11S)
1 57175U 23091K   25105.88490173  .00016213  00000-0  79860-3 0  9999
2 57175  97.5634 162.3991 0013474 166.3650 193.7950 15.17966298 99251
VERONIKA
1 58261U 23174F   25105.86296583  .00125781  00000-0  17389-2 0  9993
2 58261  97.4160 189.3285 0007747 231.7993 128.2565 15.56675756 80130
ENSO
1 58470U 23185J   25105.86278985  .00071851  00000-0  12981-2 0  9994
2 58470  97.3768 179.4697 0006923 264.5944  95.4517 15.49442870 76540
EIRSAT-1
1 58472U 23185L   25105.87304668  .00113060  00000-0  15802-2 0  9999
2 58472  97.3748 180.6291 0006503 259.1445 100.9078 15.56434797 76624
SONATE-2
1 59112U 24043Q   25105.33638502  .00028293  00000-0  87283-3 0  9999
2 59112  97.5055 235.5192 0010429 310.9834  49.0505 15.33491031 61866
MO-122
1 60209U 24125G   25104.83965645  .00026181  00000-0  79849-3 0  9997
2 60209  97.2861 317.1454 0018833 341.5399  18.5158 15.33744290 43401
GRBBeta
1 60237U 24128C   25105.56008148  .00007041  00000-0  53701-3 0  9991
2 60237  61.9916 271.3122 0046814  45.5924 314.8984 15.02026653 41936
Curium One
1 60242U 24128H   25105.61378661  .00011696  00000-0  83417-3 0  9991
2 60242  61.9818 270.1631 0046587  41.2010 319.2582 15.04081241 41963
ROBUSTA-3A
1 60243U 24128J   25105.79990916  .00011286  00000-0  81574-3 0  9991
2 60243  61.9887 270.1652 0045056  39.0010 321.4316 15.03665417 41982
CatSat
1 60246U 24125J   25105.54879498  .00012389  00000-0  43015-3 0  9998
2 60246  97.2647 317.6506 0041988 290.6920  68.9821 15.29050879 41578
HYPERVIEW-1G (RS66S)
1 61772U 24199AP  25105.89286219  .00032414  00000-0  10182-2 0  9994
2 61772  97.3614 334.9355 0015116  36.2180 324.0082 15.32824981 68579
AO-123
1 61781U 24199AY  25105.89675280  .00011772  00000-0  43907-3 0  9990
2 61781  97.3624 334.3418 0017096  37.3201 322.9223 15.27433467 68538
ZIMSAT 2
1 61783U 24199BA  25105.90374430  .00050882  00000-0  14326-2 0  9994
2 61783  97.3602 335.2138 0015527  34.9011 325.3248 15.36173271 71749
HADES-R (SO-124)
1 62690U 25009CK  25104.71535981  .00054899  00000-0  22206-2 0  9999
2 62690  97.4112 185.9113 0002740 249.0822 111.0123 15.24512968 13621
HYDRA-T
1 62692U 25009CM  25105.16791915  .00053630  00000-0  21555-2 0  9990
2 62692  97.4122 186.3741 0002598 240.8370 119.2608 15.24733833 13695
JINJUSat 1B
1 63210U 25052A   25105.69071058  .00016997  00000-0  81219-3 0  9991
2 63210  97.4480   0.5478 0005787 133.4588 226.7129 15.19075363  4912
NUSHSAT 1
1 63211U 25052B   25105.42759526  .00021648  00000-0  10315-2 0  9993
2 63211  97.4470   0.2845 0005704 137.6816 222.4859 15.19122823  4878
TEVEL2-4
1 63213U 25052D   25105.69510954  .00018887  00000-0  90647-3 0  9992
2 63213  97.4384   0.5069 0004320 144.9848 215.1672 15.18907066  4910
TEVEL2-5
1 63214U 25052E   25105.43168056  .00021271  00000-0  10206-2 0  9990
2 63214  97.4389   0.2480 0004287 146.4066 213.7441 15.18890961  4879
TEVEL2-6
1 63215U 25052F   25105.43238044  .00021092  00000-0  10132-2 0  9995
2 63215  97.4389   0.2472 0004294 147.4416 212.7084 15.18852100  4874
TEVEL2-1
1 63217U 25052H   25105.69964684  .00018093  00000-0  87445-3 0  9990
2 63217  97.4363   0.4920 0003926 158.5737 201.5662 15.18673546  4916
TEVEL2-2
1 63218U 25052J   25104.64558196  .00019969  00000-0  96577-3 0  9991
2 63218  97.4416 359.4563 0003890 162.4971 197.6398 15.18629315  4758
TEVEL2-3
1 63219U 25052K   25104.44791014  .00018861  00000-0  91294-3 0  9999
2 63219  97.4371 359.2606 0003807 162.4542 197.6824 15.18613443  4723
TEVEL2-8
1 63237U 25052AD  25105.19529538  .00019693  00000-0  98308-3 0  9999
2 63237  97.4426 359.9676 0007681 194.0117 166.0904 15.17508115  4830
TEVEL2-9
1 63238U 25052AE  25105.19584793  .00019505  00000-0  97472-3 0  9997
2 63238  97.4428 359.9676 0007792 194.3180 165.7834 15.17471798  4833
TEVEL2-7
1 63239U 25052AF  25105.65810845  .00018137  00000-0  90738-3 0  9997
2 63239  97.4423   0.4197 0007733 192.7654 167.3385 15.17448275  4909
